Starlink 31138

operational
NORAD ID: 58806 Int'l Des: 2024-012 Owner: SPXS Country: US Constellation: starlink
LEOCIRCULAR

关于 Starlink 31138

正在加载描述...

实时位置

正在加载3D地球...

即将过境

高度历史

Altitude vs Time

uPlot chart will show altitude changes over time

两行轨道根数

1 58806U 24012V 25305.33155490 -.00026304 00000-0 -94653-3 0 9998
2 58806 43.0009 170.2822 0001195 244.4270 115.6459 15.27690439101601
Epoch: Nov 1, 2025 • Age: 29 hours

当前状态

高度 495.5 km
速度 7.62 km/s
星下点 -43.14°S, 171.13°W
发射日期 Jan 15, 2024
运行时间 1.7 years
类型 internet

技术详情

分类 Payload
质量 730.00 kg
干质量 700.00 kg
总质量 730.00 kg
长度 0.30 m
直径 4.10 m
跨度 29.00 m
形状 Box + pan
制造商 SPXS
平台类型 Starlink V2M
阶段状态 In Orbit
所有者/国家 SPXS/US

大型星座

Loading constellations...